Cherokee — 9HBC7 — position and weather

sailwx.info

Track history (hours):
 
Tides and Currents Weather Stations Pressure Air Temp Water Temp Dewpoint Dewpoint Depression Visibility Wind Speed Wind Dir Waves Ship Positions

Cherokee

Last reported at 2014-Dec-19 02:19 UTC. Time now 2014-Dec-19 09:24 UTC.
Position N 40°57' E 028°40'.

Length 139 m; draft 3.9 m.

Type: Cargo ship. MMSI: 215059000.

Date/timePositionNaut miles runAvg speedWind from/ knotsBaromVisibWave heightAir tempDewpointWater temp
2014-Dec-19 02:19N 40°57' E 028°40'0 0.0
2014-Dec-18 16:28N 40°57' E 028°40'0 0.0
2014-Dec-18 03:18N 40°57' E 028°40'0 0.0
2014-Dec-18 02:07N 40°57' E 028°39'0 0.0
2014-Dec-18 01:03N 40°57' E 028°39'0 0.0
2014-Dec-17 23:25N 40°57' E 028°39'0 0.0
2014-Dec-17 21:23N 40°57' E 028°39'0 0.0
2014-Dec-17 20:14N 40°57' E 028°39'0 0.0
2014-Dec-17 18:06N 40°57' E 028°39'0 0.0
2014-Dec-17 17:03N 40°57' E 028°39'0 0.0
2014-Dec-17 05:11N 40°57' E 028°39'0 0.0
2014-Dec-17 03:15N 40°57' E 028°39'0 0.0
2014-Dec-17 02:31N 40°57' E 028°39'4 0.6
2014-Dec-16 19:22N 40°55' E 028°44'6 7.4
2014-Dec-16 18:33N 40°56' E 028°52'4 4.2
2014-Dec-16 17:33N 40°59' E 028°56'0 0.0
2014-Dec-16 16:33N 40°59' E 028°56'0 0.0
2014-Dec-16 15:33N 40°59' E 028°56'0 0.1
2014-Dec-16 14:33N 40°59' E 028°56'0 0.1
2014-Dec-16 13:33N 40°59' E 028°56'2 1.7
2014-Dec-16 12:34N 40°59' E 028°58'  
2014-Dec-13 17:34N 44°12' E 033°60'9 9.2
2014-Dec-13 16:33N 44°19' E 034°09'9 9.1
2014-Dec-13 15:34N 44°24' E 034°20'9 9.1
2014-Dec-13 14:34N 44°28' E 034°31'9 8.8
2014-Dec-13 13:34N 44°33' E 034°41'8 8.4
2014-Dec-13 12:34N 44°37' E 034°51'  
Track history (hours):
 
Tides and Currents Weather Stations Pressure Air Temp Water Temp Dewpoint Dewpoint Depression Visibility Wind Speed Wind Dir Waves Ship Positions

Cherokee

Last reported at 2014-Dec-19 02:19 UTC. Time now 2014-Dec-19 09:24 UTC.
Position N 40°57' E 028°40'.

Length 139 m; draft 3.9 m.

Type: Cargo ship. MMSI: 215059000.

Date/timePositionNaut miles runAvg speedWind from/ knotsBaromVisibWave heightAir tempDewpointWater temp
2014-Dec-19 02:19N 40°57' E 028°40'0 0.0
2014-Dec-18 16:28N 40°57' E 028°40'0 0.0
2014-Dec-18 03:18N 40°57' E 028°40'0 0.0
2014-Dec-18 02:07N 40°57' E 028°39'0 0.0
2014-Dec-18 01:03N 40°57' E 028°39'0 0.0
2014-Dec-17 23:25N 40°57' E 028°39'0 0.0
2014-Dec-17 21:23N 40°57' E 028°39'0 0.0
2014-Dec-17 20:14N 40°57' E 028°39'0 0.0
2014-Dec-17 18:06N 40°57' E 028°39'0 0.0
2014-Dec-17 17:03N 40°57' E 028°39'0 0.0
2014-Dec-17 05:11N 40°57' E 028°39'0 0.0
2014-Dec-17 03:15N 40°57' E 028°39'0 0.0
2014-Dec-17 02:31N 40°57' E 028°39'4 0.6
2014-Dec-16 19:22N 40°55' E 028°44'6 7.4
2014-Dec-16 18:33N 40°56' E 028°52'4 4.2
2014-Dec-16 17:33N 40°59' E 028°56'0 0.0
2014-Dec-16 16:33N 40°59' E 028°56'0 0.0
2014-Dec-16 15:33N 40°59' E 028°56'0 0.1
2014-Dec-16 14:33N 40°59' E 028°56'0 0.1
2014-Dec-16 13:33N 40°59' E 028°56'2 1.7
2014-Dec-16 12:34N 40°59' E 028°58'  
2014-Dec-13 17:34N 44°12' E 033°60'9 9.2
2014-Dec-13 16:33N 44°19' E 034°09'9 9.1
2014-Dec-13 15:34N 44°24' E 034°20'9 9.1
2014-Dec-13 14:34N 44°28' E 034°31'9 8.8
2014-Dec-13 13:34N 44°33' E 034°41'8 8.4
2014-Dec-13 12:34N 44°37' E 034°51'  

Dump ship's entire track history